<?xml version="1.0" encoding="UTF-8" standalone="no" ?>
<gpx xmlns="http://www.topografix.com/GPX/1/1" xmlns:xsi="http://www.w3.org/2001/XMLSchema-instance" xsi:schemaLocation="http://www.topografix.com/GPX/1/1 http://www.topografix.com/GPX/1/1/gpx.xsd" version="1.1" creator="VisuGPX - https://www.visugpx.com">
  <metadata>
    <name>Cyclo 25kms</name>
  </metadata>
  <trk>
    <name><![CDATA[Rando 2023-9224481]]></name>
    <trkseg>
      <trkpt lat="47.04056" lon="-0.88709">
        <ele>112</ele>
        <time>2023-05-08T19:45:04Z</time>
      </trkpt>
      <trkpt lat="47.04067" lon="-0.88708">
        <ele>111</ele>
        <time>2023-05-08T19:45:06Z</time>
      </trkpt>
      <trkpt lat="47.04095" lon="-0.88502">
        <ele>110</ele>
        <time>2023-05-08T19:45:31Z</time>
      </trkpt>
      <trkpt lat="47.04054" lon="-0.88502">
        <ele>111</ele>
        <time>2023-05-08T19:45:39Z</time>
      </trkpt>
      <trkpt lat="47.03992" lon="-0.88511">
        <ele>112</ele>
        <time>2023-05-08T19:45:50Z</time>
      </trkpt>
      <trkpt lat="47.03951" lon="-0.88521">
        <ele>113</ele>
        <time>2023-05-08T19:45:57Z</time>
      </trkpt>
      <trkpt lat="47.03949" lon="-0.88534">
        <ele>113</ele>
        <time>2023-05-08T19:45:59Z</time>
      </trkpt>
      <trkpt lat="47.03943" lon="-0.88545">
        <ele>113</ele>
        <time>2023-05-08T19:46:01Z</time>
      </trkpt>
      <trkpt lat="47.03934" lon="-0.88551">
        <ele>113</ele>
        <time>2023-05-08T19:46:02Z</time>
      </trkpt>
      <trkpt lat="47.03925" lon="-0.88551">
        <ele>113</ele>
        <time>2023-05-08T19:46:04Z</time>
      </trkpt>
      <trkpt lat="47.03917" lon="-0.88545">
        <ele>113</ele>
        <time>2023-05-08T19:46:05Z</time>
      </trkpt>
      <trkpt lat="47.03911" lon="-0.88534">
        <ele>113</ele>
        <time>2023-05-08T19:46:07Z</time>
      </trkpt>
      <trkpt lat="47.03909" lon="-0.88521">
        <ele>113</ele>
        <time>2023-05-08T19:46:09Z</time>
      </trkpt>
      <trkpt lat="47.03888" lon="-0.88521">
        <ele>114</ele>
        <time>2023-05-08T19:46:13Z</time>
      </trkpt>
      <trkpt lat="47.0341" lon="-0.88457">
        <ele>118</ele>
        <time>2023-05-08T19:47:38Z</time>
      </trkpt>
      <trkpt lat="47.03324" lon="-0.88445">
        <ele>120</ele>
        <time>2023-05-08T19:47:53Z</time>
      </trkpt>
      <trkpt lat="47.03282" lon="-0.88434">
        <ele>121</ele>
        <time>2023-05-08T19:48:01Z</time>
      </trkpt>
      <trkpt lat="47.03189" lon="-0.88404">
        <ele>124</ele>
        <time>2023-05-08T19:48:18Z</time>
      </trkpt>
      <trkpt lat="47.03158" lon="-0.88389">
        <ele>124</ele>
        <time>2023-05-08T19:48:24Z</time>
      </trkpt>
      <trkpt lat="47.03134" lon="-0.88372">
        <ele>125</ele>
        <time>2023-05-08T19:48:28Z</time>
      </trkpt>
      <trkpt lat="47.03049" lon="-0.88296">
        <ele>126</ele>
        <time>2023-05-08T19:48:46Z</time>
      </trkpt>
      <trkpt lat="47.02946" lon="-0.882">
        <ele>127</ele>
        <time>2023-05-08T19:49:08Z</time>
      </trkpt>
      <trkpt lat="47.02929" lon="-0.88188">
        <ele>127</ele>
        <time>2023-05-08T19:49:11Z</time>
      </trkpt>
      <trkpt lat="47.02866" lon="-0.88149">
        <ele>128</ele>
        <time>2023-05-08T19:49:23Z</time>
      </trkpt>
      <trkpt lat="47.02808" lon="-0.88116">
        <ele>128</ele>
        <time>2023-05-08T19:49:34Z</time>
      </trkpt>
      <trkpt lat="47.02778" lon="-0.88105">
        <ele>128</ele>
        <time>2023-05-08T19:49:40Z</time>
      </trkpt>
      <trkpt lat="47.02718" lon="-0.88089">
        <ele>127</ele>
        <time>2023-05-08T19:49:51Z</time>
      </trkpt>
      <trkpt lat="47.0244" lon="-0.88104">
        <ele>126</ele>
        <time>2023-05-08T19:50:40Z</time>
      </trkpt>
      <trkpt lat="47.02399" lon="-0.8811">
        <ele>126</ele>
        <time>2023-05-08T19:50:48Z</time>
      </trkpt>
      <trkpt lat="47.02358" lon="-0.88121">
        <ele>126</ele>
        <time>2023-05-08T19:50:55Z</time>
      </trkpt>
      <trkpt lat="47.02284" lon="-0.88152">
        <ele>126</ele>
        <time>2023-05-08T19:51:09Z</time>
      </trkpt>
      <trkpt lat="47.02252" lon="-0.88171">
        <ele>126</ele>
        <time>2023-05-08T19:51:15Z</time>
      </trkpt>
      <trkpt lat="47.02222" lon="-0.88193">
        <ele>126</ele>
        <time>2023-05-08T19:51:21Z</time>
      </trkpt>
      <trkpt lat="47.02128" lon="-0.88275">
        <ele>128</ele>
        <time>2023-05-08T19:51:40Z</time>
      </trkpt>
      <trkpt lat="47.02118" lon="-0.88282">
        <ele>128</ele>
        <time>2023-05-08T19:51:42Z</time>
      </trkpt>
      <trkpt lat="47.0209" lon="-0.883">
        <ele>128</ele>
        <time>2023-05-08T19:51:48Z</time>
      </trkpt>
      <trkpt lat="47.02058" lon="-0.88315">
        <ele>129</ele>
        <time>2023-05-08T19:51:54Z</time>
      </trkpt>
      <trkpt lat="47.02036" lon="-0.88321">
        <ele>130</ele>
        <time>2023-05-08T19:51:58Z</time>
      </trkpt>
      <trkpt lat="47.0201" lon="-0.88325">
        <ele>131</ele>
        <time>2023-05-08T19:52:02Z</time>
      </trkpt>
      <trkpt lat="47.01987" lon="-0.88326">
        <ele>131</ele>
        <time>2023-05-08T19:52:06Z</time>
      </trkpt>
      <trkpt lat="47.01945" lon="-0.88319">
        <ele>133</ele>
        <time>2023-05-08T19:52:14Z</time>
      </trkpt>
      <trkpt lat="47.01867" lon="-0.88291">
        <ele>133</ele>
        <time>2023-05-08T19:52:28Z</time>
      </trkpt>
      <trkpt lat="47.01812" lon="-0.88281">
        <ele>133</ele>
        <time>2023-05-08T19:52:38Z</time>
      </trkpt>
      <trkpt lat="47.01778" lon="-0.88282">
        <ele>133</ele>
        <time>2023-05-08T19:52:44Z</time>
      </trkpt>
      <trkpt lat="47.0175" lon="-0.88287">
        <ele>133</ele>
        <time>2023-05-08T19:52:49Z</time>
      </trkpt>
      <trkpt lat="47.01734" lon="-0.88293">
        <ele>134</ele>
        <time>2023-05-08T19:52:52Z</time>
      </trkpt>
      <trkpt lat="47.01727" lon="-0.88297">
        <ele>134</ele>
        <time>2023-05-08T19:52:53Z</time>
      </trkpt>
      <trkpt lat="47.01722" lon="-0.88308">
        <ele>134</ele>
        <time>2023-05-08T19:52:55Z</time>
      </trkpt>
      <trkpt lat="47.01717" lon="-0.88311">
        <ele>134</ele>
        <time>2023-05-08T19:52:56Z</time>
      </trkpt>
      <trkpt lat="47.01711" lon="-0.88311">
        <ele>134</ele>
        <time>2023-05-08T19:52:57Z</time>
      </trkpt>
      <trkpt lat="47.01706" lon="-0.88308">
        <ele>134</ele>
        <time>2023-05-08T19:52:58Z</time>
      </trkpt>
      <trkpt lat="47.01702" lon="-0.88304">
        <ele>134</ele>
        <time>2023-05-08T19:52:59Z</time>
      </trkpt>
      <trkpt lat="47.01686" lon="-0.88303">
        <ele>134</ele>
        <time>2023-05-08T19:53:02Z</time>
      </trkpt>
      <trkpt lat="47.01557" lon="-0.88336">
        <ele>134</ele>
        <time>2023-05-08T19:53:25Z</time>
      </trkpt>
      <trkpt lat="47.01505" lon="-0.88346">
        <ele>135</ele>
        <time>2023-05-08T19:53:34Z</time>
      </trkpt>
      <trkpt lat="47.0138" lon="-0.88376">
        <ele>134</ele>
        <time>2023-05-08T19:53:57Z</time>
      </trkpt>
      <trkpt lat="47.01295" lon="-0.8841">
        <ele>134</ele>
        <time>2023-05-08T19:54:13Z</time>
      </trkpt>
      <trkpt lat="47.01128" lon="-0.88489">
        <ele>135</ele>
        <time>2023-05-08T19:54:44Z</time>
      </trkpt>
      <trkpt lat="47.01075" lon="-0.88518">
        <ele>134</ele>
        <time>2023-05-08T19:54:54Z</time>
      </trkpt>
      <trkpt lat="47.01" lon="-0.88569">
        <ele>133</ele>
        <time>2023-05-08T19:55:09Z</time>
      </trkpt>
      <trkpt lat="47.0099" lon="-0.88543">
        <ele>133</ele>
        <time>2023-05-08T19:55:12Z</time>
      </trkpt>
      <trkpt lat="47.00989" lon="-0.88524">
        <ele>134</ele>
        <time>2023-05-08T19:55:14Z</time>
      </trkpt>
      <trkpt lat="47.00991" lon="-0.88517">
        <ele>134</ele>
        <time>2023-05-08T19:55:15Z</time>
      </trkpt>
      <trkpt lat="47.00998" lon="-0.88505">
        <ele>134</ele>
        <time>2023-05-08T19:55:17Z</time>
      </trkpt>
      <trkpt lat="47.01007" lon="-0.88501">
        <ele>134</ele>
        <time>2023-05-08T19:55:19Z</time>
      </trkpt>
      <trkpt lat="47.01133" lon="-0.88464">
        <ele>136</ele>
        <time>2023-05-08T19:55:42Z</time>
      </trkpt>
      <trkpt lat="47.0114" lon="-0.88459">
        <ele>136</ele>
        <time>2023-05-08T19:55:43Z</time>
      </trkpt>
      <trkpt lat="47.01148" lon="-0.8845">
        <ele>136</ele>
        <time>2023-05-08T19:55:45Z</time>
      </trkpt>
      <trkpt lat="47.01153" lon="-0.88438">
        <ele>136</ele>
        <time>2023-05-08T19:55:47Z</time>
      </trkpt>
      <trkpt lat="47.01155" lon="-0.88425">
        <ele>137</ele>
        <time>2023-05-08T19:55:48Z</time>
      </trkpt>
      <trkpt lat="47.01156" lon="-0.88414">
        <ele>137</ele>
        <time>2023-05-08T19:55:50Z</time>
      </trkpt>
      <trkpt lat="47.01153" lon="-0.884">
        <ele>137</ele>
        <time>2023-05-08T19:55:51Z</time>
      </trkpt>
      <trkpt lat="47.01133" lon="-0.88352">
        <ele>136</ele>
        <time>2023-05-08T19:55:58Z</time>
      </trkpt>
      <trkpt lat="47.01148" lon="-0.88341">
        <ele>136</ele>
        <time>2023-05-08T19:56:01Z</time>
      </trkpt>
      <trkpt lat="47.01148" lon="-0.88341">
        <ele>136</ele>
        <time>2023-05-08T19:56:01Z</time>
      </trkpt>
      <trkpt lat="47.01133" lon="-0.88352">
        <ele>136</ele>
        <time>2023-05-08T19:56:04Z</time>
      </trkpt>
      <trkpt lat="47.00843" lon="-0.87658">
        <ele>135</ele>
        <time>2023-05-08T19:57:43Z</time>
      </trkpt>
      <trkpt lat="47.00811" lon="-0.87588">
        <ele>134</ele>
        <time>2023-05-08T19:57:53Z</time>
      </trkpt>
      <trkpt lat="47.00763" lon="-0.87474">
        <ele>137</ele>
        <time>2023-05-08T19:58:10Z</time>
      </trkpt>
      <trkpt lat="47.00737" lon="-0.87434">
        <ele>139</ele>
        <time>2023-05-08T19:58:16Z</time>
      </trkpt>
      <trkpt lat="47.00546" lon="-0.87159">
        <ele>143</ele>
        <time>2023-05-08T19:59:04Z</time>
      </trkpt>
      <trkpt lat="47.00535" lon="-0.87137">
        <ele>143</ele>
        <time>2023-05-08T19:59:07Z</time>
      </trkpt>
      <trkpt lat="47.0041" lon="-0.86855">
        <ele>141</ele>
        <time>2023-05-08T19:59:48Z</time>
      </trkpt>
      <trkpt lat="47.004" lon="-0.86836">
        <ele>141</ele>
        <time>2023-05-08T19:59:51Z</time>
      </trkpt>
      <trkpt lat="47.00389" lon="-0.86822">
        <ele>142</ele>
        <time>2023-05-08T19:59:53Z</time>
      </trkpt>
      <trkpt lat="47.00341" lon="-0.8678">
        <ele>144</ele>
        <time>2023-05-08T20:00:03Z</time>
      </trkpt>
      <trkpt lat="47.00373" lon="-0.86685">
        <ele>143</ele>
        <time>2023-05-08T20:00:16Z</time>
      </trkpt>
      <trkpt lat="47.0039" lon="-0.86619">
        <ele>142</ele>
        <time>2023-05-08T20:00:25Z</time>
      </trkpt>
      <trkpt lat="47.00397" lon="-0.8658">
        <ele>142</ele>
        <time>2023-05-08T20:00:30Z</time>
      </trkpt>
      <trkpt lat="47.00408" lon="-0.86486">
        <ele>141</ele>
        <time>2023-05-08T20:00:41Z</time>
      </trkpt>
      <trkpt lat="47.00412" lon="-0.86387">
        <ele>139</ele>
        <time>2023-05-08T20:00:53Z</time>
      </trkpt>
      <trkpt lat="47.00412" lon="-0.86322">
        <ele>138</ele>
        <time>2023-05-08T20:01:01Z</time>
      </trkpt>
      <trkpt lat="47.00408" lon="-0.86256">
        <ele>137</ele>
        <time>2023-05-08T20:01:09Z</time>
      </trkpt>
      <trkpt lat="47.00408" lon="-0.86174">
        <ele>136</ele>
        <time>2023-05-08T20:01:19Z</time>
      </trkpt>
      <trkpt lat="47.0041" lon="-0.86003">
        <ele>136</ele>
        <time>2023-05-08T20:01:40Z</time>
      </trkpt>
      <trkpt lat="47.00418" lon="-0.85899">
        <ele>135</ele>
        <time>2023-05-08T20:01:53Z</time>
      </trkpt>
      <trkpt lat="47.00421" lon="-0.85848">
        <ele>133</ele>
        <time>2023-05-08T20:01:59Z</time>
      </trkpt>
      <trkpt lat="47.00422" lon="-0.85782">
        <ele>132</ele>
        <time>2023-05-08T20:02:07Z</time>
      </trkpt>
      <trkpt lat="47.00431" lon="-0.8573">
        <ele>132</ele>
        <time>2023-05-08T20:02:13Z</time>
      </trkpt>
      <trkpt lat="47.00451" lon="-0.85653">
        <ele>132</ele>
        <time>2023-05-08T20:02:23Z</time>
      </trkpt>
      <trkpt lat="47.00455" lon="-0.85623">
        <ele>132</ele>
        <time>2023-05-08T20:02:27Z</time>
      </trkpt>
      <trkpt lat="47.00456" lon="-0.85582">
        <ele>132</ele>
        <time>2023-05-08T20:02:32Z</time>
      </trkpt>
      <trkpt lat="47.00453" lon="-0.8557">
        <ele>131</ele>
        <time>2023-05-08T20:02:34Z</time>
      </trkpt>
      <trkpt lat="47.00452" lon="-0.85571">
        <ele>131</ele>
        <time>2023-05-08T20:02:34Z</time>
      </trkpt>
      <trkpt lat="47.00448" lon="-0.85567">
        <ele>132</ele>
        <time>2023-05-08T20:02:35Z</time>
      </trkpt>
      <trkpt lat="47.00447" lon="-0.8556">
        <ele>131</ele>
        <time>2023-05-08T20:02:36Z</time>
      </trkpt>
      <trkpt lat="47.0045" lon="-0.85555">
        <ele>131</ele>
        <time>2023-05-08T20:02:36Z</time>
      </trkpt>
      <trkpt lat="47.00454" lon="-0.85554">
        <ele>131</ele>
        <time>2023-05-08T20:02:37Z</time>
      </trkpt>
      <trkpt lat="47.00458" lon="-0.85545">
        <ele>131</ele>
        <time>2023-05-08T20:02:38Z</time>
      </trkpt>
      <trkpt lat="47.00463" lon="-0.85441">
        <ele>131</ele>
        <time>2023-05-08T20:02:51Z</time>
      </trkpt>
      <trkpt lat="47.00467" lon="-0.85406">
        <ele>130</ele>
        <time>2023-05-08T20:02:55Z</time>
      </trkpt>
      <trkpt lat="47.00481" lon="-0.85314">
        <ele>128</ele>
        <time>2023-05-08T20:03:07Z</time>
      </trkpt>
      <trkpt lat="47.00486" lon="-0.8527">
        <ele>127</ele>
        <time>2023-05-08T20:03:12Z</time>
      </trkpt>
      <trkpt lat="47.00487" lon="-0.85238">
        <ele>126</ele>
        <time>2023-05-08T20:03:16Z</time>
      </trkpt>
      <trkpt lat="47.00473" lon="-0.85241">
        <ele>125</ele>
        <time>2023-05-08T20:03:19Z</time>
      </trkpt>
      <trkpt lat="47.00473" lon="-0.85241">
        <ele>125</ele>
        <time>2023-05-08T20:03:19Z</time>
      </trkpt>
      <trkpt lat="47.00487" lon="-0.85238">
        <ele>126</ele>
        <time>2023-05-08T20:03:21Z</time>
      </trkpt>
      <trkpt lat="47.00488" lon="-0.85229">
        <ele>125</ele>
        <time>2023-05-08T20:03:22Z</time>
      </trkpt>
      <trkpt lat="47.00499" lon="-0.85191">
        <ele>125</ele>
        <time>2023-05-08T20:03:27Z</time>
      </trkpt>
      <trkpt lat="47.00488" lon="-0.8518">
        <ele>124</ele>
        <time>2023-05-08T20:03:30Z</time>
      </trkpt>
      <trkpt lat="47.00474" lon="-0.85152">
        <ele>123</ele>
        <time>2023-05-08T20:03:34Z</time>
      </trkpt>
      <trkpt lat="47.00466" lon="-0.85114">
        <ele>123</ele>
        <time>2023-05-08T20:03:39Z</time>
      </trkpt>
      <trkpt lat="47.00463" lon="-0.85097">
        <ele>122</ele>
        <time>2023-05-08T20:03:41Z</time>
      </trkpt>
      <trkpt lat="47.00463" lon="-0.85081">
        <ele>122</ele>
        <time>2023-05-08T20:03:43Z</time>
      </trkpt>
      <trkpt lat="47.0047" lon="-0.85076">
        <ele>122</ele>
        <time>2023-05-08T20:03:44Z</time>
      </trkpt>
      <trkpt lat="47.00484" lon="-0.85057">
        <ele>121</ele>
        <time>2023-05-08T20:03:48Z</time>
      </trkpt>
      <trkpt lat="47.00491" lon="-0.85051">
        <ele>120</ele>
        <time>2023-05-08T20:03:49Z</time>
      </trkpt>
      <trkpt lat="47.00521" lon="-0.84995">
        <ele>117</ele>
        <time>2023-05-08T20:03:58Z</time>
      </trkpt>
      <trkpt lat="47.00527" lon="-0.84987">
        <ele>116</ele>
        <time>2023-05-08T20:03:59Z</time>
      </trkpt>
      <trkpt lat="47.00533" lon="-0.84984">
        <ele>116</ele>
        <time>2023-05-08T20:04:00Z</time>
      </trkpt>
      <trkpt lat="47.00533" lon="-0.84949">
        <ele>115</ele>
        <time>2023-05-08T20:04:04Z</time>
      </trkpt>
      <trkpt lat="47.00536" lon="-0.84912">
        <ele>113</ele>
        <time>2023-05-08T20:04:09Z</time>
      </trkpt>
      <trkpt lat="47.00541" lon="-0.84883">
        <ele>113</ele>
        <time>2023-05-08T20:04:13Z</time>
      </trkpt>
      <trkpt lat="47.00536" lon="-0.84877">
        <ele>113</ele>
        <time>2023-05-08T20:04:14Z</time>
      </trkpt>
      <trkpt lat="47.00533" lon="-0.84866">
        <ele>113</ele>
        <time>2023-05-08T20:04:15Z</time>
      </trkpt>
      <trkpt lat="47.00532" lon="-0.84843">
        <ele>112</ele>
        <time>2023-05-08T20:04:18Z</time>
      </trkpt>
      <trkpt lat="47.00528" lon="-0.84402">
        <ele>129</ele>
        <time>2023-05-08T20:05:11Z</time>
      </trkpt>
      <trkpt lat="47.00519" lon="-0.84359">
        <ele>129</ele>
        <time>2023-05-08T20:05:17Z</time>
      </trkpt>
      <trkpt lat="47.00511" lon="-0.8434">
        <ele>130</ele>
        <time>2023-05-08T20:05:20Z</time>
      </trkpt>
      <trkpt lat="47.0051" lon="-0.84325">
        <ele>130</ele>
        <time>2023-05-08T20:05:21Z</time>
      </trkpt>
      <trkpt lat="47.00503" lon="-0.8431">
        <ele>130</ele>
        <time>2023-05-08T20:05:24Z</time>
      </trkpt>
      <trkpt lat="47.00463" lon="-0.84184">
        <ele>132</ele>
        <time>2023-05-08T20:05:41Z</time>
      </trkpt>
      <trkpt lat="47.0036" lon="-0.83922">
        <ele>135</ele>
        <time>2023-05-08T20:06:17Z</time>
      </trkpt>
      <trkpt lat="47.0035" lon="-0.83928">
        <ele>135</ele>
        <time>2023-05-08T20:06:19Z</time>
      </trkpt>
      <trkpt lat="47.0035" lon="-0.83928">
        <ele>135</ele>
        <time>2023-05-08T20:06:19Z</time>
      </trkpt>
      <trkpt lat="47.00216" lon="-0.84031">
        <ele>132</ele>
        <time>2023-05-08T20:06:46Z</time>
      </trkpt>
      <trkpt lat="47.00188" lon="-0.84048">
        <ele>132</ele>
        <time>2023-05-08T20:06:51Z</time>
      </trkpt>
      <trkpt lat="47.00159" lon="-0.84063">
        <ele>133</ele>
        <time>2023-05-08T20:06:57Z</time>
      </trkpt>
      <trkpt lat="47.00132" lon="-0.84074">
        <ele>133</ele>
        <time>2023-05-08T20:07:02Z</time>
      </trkpt>
      <trkpt lat="47.00005" lon="-0.84108">
        <ele>132</ele>
        <time>2023-05-08T20:07:25Z</time>
      </trkpt>
      <trkpt lat="46.99976" lon="-0.84124">
        <ele>133</ele>
        <time>2023-05-08T20:07:30Z</time>
      </trkpt>
      <trkpt lat="46.99951" lon="-0.84143">
        <ele>133</ele>
        <time>2023-05-08T20:07:35Z</time>
      </trkpt>
      <trkpt lat="46.99926" lon="-0.84157">
        <ele>134</ele>
        <time>2023-05-08T20:07:40Z</time>
      </trkpt>
      <trkpt lat="46.99842" lon="-0.84201">
        <ele>137</ele>
        <time>2023-05-08T20:07:56Z</time>
      </trkpt>
      <trkpt lat="46.99748" lon="-0.84244">
        <ele>139</ele>
        <time>2023-05-08T20:08:14Z</time>
      </trkpt>
      <trkpt lat="46.99707" lon="-0.84246">
        <ele>140</ele>
        <time>2023-05-08T20:08:21Z</time>
      </trkpt>
      <trkpt lat="46.99699" lon="-0.84248">
        <ele>140</ele>
        <time>2023-05-08T20:08:22Z</time>
      </trkpt>
      <trkpt lat="46.99688" lon="-0.84257">
        <ele>140</ele>
        <time>2023-05-08T20:08:25Z</time>
      </trkpt>
      <trkpt lat="46.99676" lon="-0.84263">
        <ele>140</ele>
        <time>2023-05-08T20:08:27Z</time>
      </trkpt>
      <trkpt lat="46.99663" lon="-0.84264">
        <ele>141</ele>
        <time>2023-05-08T20:08:29Z</time>
      </trkpt>
      <trkpt lat="46.99649" lon="-0.8426">
        <ele>141</ele>
        <time>2023-05-08T20:08:32Z</time>
      </trkpt>
      <trkpt lat="46.99613" lon="-0.84243">
        <ele>142</ele>
        <time>2023-05-08T20:08:38Z</time>
      </trkpt>
      <trkpt lat="46.99599" lon="-0.84242">
        <ele>143</ele>
        <time>2023-05-08T20:08:41Z</time>
      </trkpt>
      <trkpt lat="46.9958" lon="-0.84244">
        <ele>143</ele>
        <time>2023-05-08T20:08:44Z</time>
      </trkpt>
      <trkpt lat="46.99538" lon="-0.84256">
        <ele>143</ele>
        <time>2023-05-08T20:08:52Z</time>
      </trkpt>
      <trkpt lat="46.9941" lon="-0.84298">
        <ele>145</ele>
        <time>2023-05-08T20:09:15Z</time>
      </trkpt>
      <trkpt lat="46.99334" lon="-0.84318">
        <ele>147</ele>
        <time>2023-05-08T20:09:29Z</time>
      </trkpt>
      <trkpt lat="46.99284" lon="-0.84325">
        <ele>150</ele>
        <time>2023-05-08T20:09:38Z</time>
      </trkpt>
      <trkpt lat="46.99265" lon="-0.84325">
        <ele>151</ele>
        <time>2023-05-08T20:09:41Z</time>
      </trkpt>
      <trkpt lat="46.99229" lon="-0.8432">
        <ele>152</ele>
        <time>2023-05-08T20:09:48Z</time>
      </trkpt>
      <trkpt lat="46.98986" lon="-0.84287">
        <ele>155</ele>
        <time>2023-05-08T20:10:31Z</time>
      </trkpt>
      <trkpt lat="46.98962" lon="-0.84281">
        <ele>155</ele>
        <time>2023-05-08T20:10:35Z</time>
      </trkpt>
      <trkpt lat="46.98962" lon="-0.84288">
        <ele>155</ele>
        <time>2023-05-08T20:10:36Z</time>
      </trkpt>
      <trkpt lat="46.98956" lon="-0.843">
        <ele>155</ele>
        <time>2023-05-08T20:10:38Z</time>
      </trkpt>
      <trkpt lat="46.98952" lon="-0.84303">
        <ele>155</ele>
        <time>2023-05-08T20:10:39Z</time>
      </trkpt>
      <trkpt lat="46.98947" lon="-0.84305">
        <ele>155</ele>
        <time>2023-05-08T20:10:40Z</time>
      </trkpt>
      <trkpt lat="46.98938" lon="-0.843">
        <ele>155</ele>
        <time>2023-05-08T20:10:42Z</time>
      </trkpt>
      <trkpt lat="46.98934" lon="-0.84295">
        <ele>156</ele>
        <time>2023-05-08T20:10:42Z</time>
      </trkpt>
      <trkpt lat="46.98851" lon="-0.84388">
        <ele>154</ele>
        <time>2023-05-08T20:11:01Z</time>
      </trkpt>
      <trkpt lat="46.98801" lon="-0.84449">
        <ele>153</ele>
        <time>2023-05-08T20:11:13Z</time>
      </trkpt>
      <trkpt lat="46.98802" lon="-0.84454">
        <ele>153</ele>
        <time>2023-05-08T20:11:13Z</time>
      </trkpt>
      <trkpt lat="46.98802" lon="-0.84465">
        <ele>152</ele>
        <time>2023-05-08T20:11:15Z</time>
      </trkpt>
      <trkpt lat="46.988" lon="-0.84469">
        <ele>152</ele>
        <time>2023-05-08T20:11:15Z</time>
      </trkpt>
      <trkpt lat="46.98794" lon="-0.84476">
        <ele>152</ele>
        <time>2023-05-08T20:11:17Z</time>
      </trkpt>
      <trkpt lat="46.9879" lon="-0.84477">
        <ele>152</ele>
        <time>2023-05-08T20:11:17Z</time>
      </trkpt>
      <trkpt lat="46.98781" lon="-0.84474">
        <ele>152</ele>
        <time>2023-05-08T20:11:19Z</time>
      </trkpt>
      <trkpt lat="46.98776" lon="-0.84463">
        <ele>152</ele>
        <time>2023-05-08T20:11:21Z</time>
      </trkpt>
      <trkpt lat="46.98776" lon="-0.84457">
        <ele>152</ele>
        <time>2023-05-08T20:11:21Z</time>
      </trkpt>
      <trkpt lat="46.9855" lon="-0.84461">
        <ele>150</ele>
        <time>2023-05-08T20:12:01Z</time>
      </trkpt>
      <trkpt lat="46.98549" lon="-0.84482">
        <ele>150</ele>
        <time>2023-05-08T20:12:04Z</time>
      </trkpt>
      <trkpt lat="46.98543" lon="-0.84529">
        <ele>150</ele>
        <time>2023-05-08T20:12:10Z</time>
      </trkpt>
      <trkpt lat="46.98541" lon="-0.84579">
        <ele>150</ele>
        <time>2023-05-08T20:12:16Z</time>
      </trkpt>
      <trkpt lat="46.98541" lon="-0.84579">
        <ele>150</ele>
        <time>2023-05-08T20:12:16Z</time>
      </trkpt>
      <trkpt lat="46.98535" lon="-0.8467">
        <ele>149</ele>
        <time>2023-05-08T20:12:27Z</time>
      </trkpt>
      <trkpt lat="46.98519" lon="-0.84786">
        <ele>148</ele>
        <time>2023-05-08T20:12:41Z</time>
      </trkpt>
      <trkpt lat="46.98517" lon="-0.84821">
        <ele>148</ele>
        <time>2023-05-08T20:12:46Z</time>
      </trkpt>
      <trkpt lat="46.98521" lon="-0.849">
        <ele>148</ele>
        <time>2023-05-08T20:12:55Z</time>
      </trkpt>
      <trkpt lat="46.98521" lon="-0.84975">
        <ele>148</ele>
        <time>2023-05-08T20:13:04Z</time>
      </trkpt>
      <trkpt lat="46.98533" lon="-0.85154">
        <ele>151</ele>
        <time>2023-05-08T20:13:26Z</time>
      </trkpt>
      <trkpt lat="46.98549" lon="-0.85224">
        <ele>151</ele>
        <time>2023-05-08T20:13:35Z</time>
      </trkpt>
      <trkpt lat="46.98558" lon="-0.85287">
        <ele>152</ele>
        <time>2023-05-08T20:13:43Z</time>
      </trkpt>
      <trkpt lat="46.98563" lon="-0.8537">
        <ele>154</ele>
        <time>2023-05-08T20:13:53Z</time>
      </trkpt>
      <trkpt lat="46.9856" lon="-0.85438">
        <ele>156</ele>
        <time>2023-05-08T20:14:01Z</time>
      </trkpt>
      <trkpt lat="46.98555" lon="-0.85497">
        <ele>158</ele>
        <time>2023-05-08T20:14:09Z</time>
      </trkpt>
      <trkpt lat="46.98541" lon="-0.85557">
        <ele>160</ele>
        <time>2023-05-08T20:14:16Z</time>
      </trkpt>
      <trkpt lat="46.98539" lon="-0.85584">
        <ele>162</ele>
        <time>2023-05-08T20:14:20Z</time>
      </trkpt>
      <trkpt lat="46.98545" lon="-0.8561">
        <ele>163</ele>
        <time>2023-05-08T20:14:23Z</time>
      </trkpt>
      <trkpt lat="46.98556" lon="-0.85638">
        <ele>165</ele>
        <time>2023-05-08T20:14:27Z</time>
      </trkpt>
      <trkpt lat="46.98625" lon="-0.85756">
        <ele>173</ele>
        <time>2023-05-08T20:14:46Z</time>
      </trkpt>
      <trkpt lat="46.98659" lon="-0.85825">
        <ele>177</ele>
        <time>2023-05-08T20:14:56Z</time>
      </trkpt>
      <trkpt lat="46.9874" lon="-0.86023">
        <ele>179</ele>
        <time>2023-05-08T20:15:24Z</time>
      </trkpt>
      <trkpt lat="46.988" lon="-0.86182">
        <ele>181</ele>
        <time>2023-05-08T20:15:46Z</time>
      </trkpt>
      <trkpt lat="46.98808" lon="-0.86197">
        <ele>181</ele>
        <time>2023-05-08T20:15:48Z</time>
      </trkpt>
      <trkpt lat="46.98839" lon="-0.86239">
        <ele>181</ele>
        <time>2023-05-08T20:15:56Z</time>
      </trkpt>
      <trkpt lat="46.98847" lon="-0.86254">
        <ele>181</ele>
        <time>2023-05-08T20:15:58Z</time>
      </trkpt>
      <trkpt lat="46.98894" lon="-0.86423">
        <ele>182</ele>
        <time>2023-05-08T20:16:20Z</time>
      </trkpt>
      <trkpt lat="46.989" lon="-0.86439">
        <ele>182</ele>
        <time>2023-05-08T20:16:23Z</time>
      </trkpt>
      <trkpt lat="46.98955" lon="-0.86538">
        <ele>182</ele>
        <time>2023-05-08T20:16:38Z</time>
      </trkpt>
      <trkpt lat="46.98971" lon="-0.86575">
        <ele>182</ele>
        <time>2023-05-08T20:16:43Z</time>
      </trkpt>
      <trkpt lat="46.99" lon="-0.86665">
        <ele>180</ele>
        <time>2023-05-08T20:16:55Z</time>
      </trkpt>
      <trkpt lat="46.99006" lon="-0.86692">
        <ele>179</ele>
        <time>2023-05-08T20:16:59Z</time>
      </trkpt>
      <trkpt lat="46.99023" lon="-0.86782">
        <ele>176</ele>
        <time>2023-05-08T20:17:10Z</time>
      </trkpt>
      <trkpt lat="46.99035" lon="-0.86828">
        <ele>175</ele>
        <time>2023-05-08T20:17:16Z</time>
      </trkpt>
      <trkpt lat="46.99042" lon="-0.86856">
        <ele>176</ele>
        <time>2023-05-08T20:17:20Z</time>
      </trkpt>
      <trkpt lat="46.99059" lon="-0.86898">
        <ele>176</ele>
        <time>2023-05-08T20:17:26Z</time>
      </trkpt>
      <trkpt lat="46.99084" lon="-0.86931">
        <ele>176</ele>
        <time>2023-05-08T20:17:32Z</time>
      </trkpt>
      <trkpt lat="46.99154" lon="-0.86997">
        <ele>177</ele>
        <time>2023-05-08T20:17:47Z</time>
      </trkpt>
      <trkpt lat="46.99179" lon="-0.87026">
        <ele>176</ele>
        <time>2023-05-08T20:17:52Z</time>
      </trkpt>
      <trkpt lat="46.993" lon="-0.87234">
        <ele>177</ele>
        <time>2023-05-08T20:18:25Z</time>
      </trkpt>
      <trkpt lat="46.99341" lon="-0.8731">
        <ele>177</ele>
        <time>2023-05-08T20:18:37Z</time>
      </trkpt>
      <trkpt lat="46.99447" lon="-0.87584">
        <ele>176</ele>
        <time>2023-05-08T20:19:15Z</time>
      </trkpt>
      <trkpt lat="46.99577" lon="-0.87932">
        <ele>175</ele>
        <time>2023-05-08T20:20:04Z</time>
      </trkpt>
      <trkpt lat="46.99608" lon="-0.88023">
        <ele>173</ele>
        <time>2023-05-08T20:20:16Z</time>
      </trkpt>
      <trkpt lat="46.99634" lon="-0.88121">
        <ele>168</ele>
        <time>2023-05-08T20:20:29Z</time>
      </trkpt>
      <trkpt lat="46.99663" lon="-0.88186">
        <ele>164</ele>
        <time>2023-05-08T20:20:38Z</time>
      </trkpt>
      <trkpt lat="46.99728" lon="-0.88369">
        <ele>165</ele>
        <time>2023-05-08T20:21:03Z</time>
      </trkpt>
      <trkpt lat="46.99751" lon="-0.88414">
        <ele>167</ele>
        <time>2023-05-08T20:21:10Z</time>
      </trkpt>
      <trkpt lat="46.99756" lon="-0.88429">
        <ele>167</ele>
        <time>2023-05-08T20:21:12Z</time>
      </trkpt>
      <trkpt lat="46.99758" lon="-0.88447">
        <ele>167</ele>
        <time>2023-05-08T20:21:14Z</time>
      </trkpt>
      <trkpt lat="46.99751" lon="-0.88552">
        <ele>166</ele>
        <time>2023-05-08T20:21:27Z</time>
      </trkpt>
      <trkpt lat="46.99747" lon="-0.88614">
        <ele>164</ele>
        <time>2023-05-08T20:21:35Z</time>
      </trkpt>
      <trkpt lat="46.99737" lon="-0.88694">
        <ele>160</ele>
        <time>2023-05-08T20:21:44Z</time>
      </trkpt>
      <trkpt lat="46.99727" lon="-0.88855">
        <ele>150</ele>
        <time>2023-05-08T20:22:04Z</time>
      </trkpt>
      <trkpt lat="46.99714" lon="-0.88915">
        <ele>146</ele>
        <time>2023-05-08T20:22:12Z</time>
      </trkpt>
      <trkpt lat="46.99694" lon="-0.88977">
        <ele>144</ele>
        <time>2023-05-08T20:22:20Z</time>
      </trkpt>
      <trkpt lat="46.99689" lon="-0.89004">
        <ele>143</ele>
        <time>2023-05-08T20:22:23Z</time>
      </trkpt>
      <trkpt lat="46.99687" lon="-0.891">
        <ele>140</ele>
        <time>2023-05-08T20:22:35Z</time>
      </trkpt>
      <trkpt lat="46.99711" lon="-0.89172">
        <ele>141</ele>
        <time>2023-05-08T20:22:45Z</time>
      </trkpt>
      <trkpt lat="46.99679" lon="-0.89192">
        <ele>139</ele>
        <time>2023-05-08T20:22:51Z</time>
      </trkpt>
      <trkpt lat="46.99679" lon="-0.89192">
        <ele>139</ele>
        <time>2023-05-08T20:22:51Z</time>
      </trkpt>
      <trkpt lat="46.99711" lon="-0.89172">
        <ele>141</ele>
        <time>2023-05-08T20:22:57Z</time>
      </trkpt>
      <trkpt lat="46.99718" lon="-0.89195">
        <ele>141</ele>
        <time>2023-05-08T20:23:00Z</time>
      </trkpt>
      <trkpt lat="46.99724" lon="-0.89218">
        <ele>141</ele>
        <time>2023-05-08T20:23:03Z</time>
      </trkpt>
      <trkpt lat="46.9973" lon="-0.89219">
        <ele>141</ele>
        <time>2023-05-08T20:23:04Z</time>
      </trkpt>
      <trkpt lat="46.99736" lon="-0.89224">
        <ele>141</ele>
        <time>2023-05-08T20:23:06Z</time>
      </trkpt>
      <trkpt lat="46.99737" lon="-0.89228">
        <ele>141</ele>
        <time>2023-05-08T20:23:06Z</time>
      </trkpt>
      <trkpt lat="46.99753" lon="-0.89222">
        <ele>142</ele>
        <time>2023-05-08T20:23:09Z</time>
      </trkpt>
      <trkpt lat="46.99796" lon="-0.89189">
        <ele>144</ele>
        <time>2023-05-08T20:23:18Z</time>
      </trkpt>
      <trkpt lat="46.99844" lon="-0.8916">
        <ele>144</ele>
        <time>2023-05-08T20:23:27Z</time>
      </trkpt>
      <trkpt lat="46.99889" lon="-0.8914">
        <ele>145</ele>
        <time>2023-05-08T20:23:35Z</time>
      </trkpt>
      <trkpt lat="46.99946" lon="-0.89123">
        <ele>146</ele>
        <time>2023-05-08T20:23:46Z</time>
      </trkpt>
      <trkpt lat="47.00167" lon="-0.89089">
        <ele>144</ele>
        <time>2023-05-08T20:24:25Z</time>
      </trkpt>
      <trkpt lat="47.00193" lon="-0.89093">
        <ele>144</ele>
        <time>2023-05-08T20:24:30Z</time>
      </trkpt>
      <trkpt lat="47.00206" lon="-0.89104">
        <ele>144</ele>
        <time>2023-05-08T20:24:32Z</time>
      </trkpt>
      <trkpt lat="47.00215" lon="-0.89087">
        <ele>143</ele>
        <time>2023-05-08T20:24:35Z</time>
      </trkpt>
      <trkpt lat="47.0023" lon="-0.8908">
        <ele>143</ele>
        <time>2023-05-08T20:24:38Z</time>
      </trkpt>
      <trkpt lat="47.00243" lon="-0.89084">
        <ele>143</ele>
        <time>2023-05-08T20:24:40Z</time>
      </trkpt>
      <trkpt lat="47.00253" lon="-0.89097">
        <ele>143</ele>
        <time>2023-05-08T20:24:43Z</time>
      </trkpt>
      <trkpt lat="47.00257" lon="-0.8912">
        <ele>143</ele>
        <time>2023-05-08T20:24:45Z</time>
      </trkpt>
      <trkpt lat="47.00255" lon="-0.89134">
        <ele>143</ele>
        <time>2023-05-08T20:24:47Z</time>
      </trkpt>
      <trkpt lat="47.0025" lon="-0.89145">
        <ele>144</ele>
        <time>2023-05-08T20:24:49Z</time>
      </trkpt>
      <trkpt lat="47.00242" lon="-0.89154">
        <ele>144</ele>
        <time>2023-05-08T20:24:51Z</time>
      </trkpt>
      <trkpt lat="47.00234" lon="-0.89157">
        <ele>144</ele>
        <time>2023-05-08T20:24:52Z</time>
      </trkpt>
      <trkpt lat="47.00225" lon="-0.89156">
        <ele>144</ele>
        <time>2023-05-08T20:24:54Z</time>
      </trkpt>
      <trkpt lat="47.00218" lon="-0.89153">
        <ele>145</ele>
        <time>2023-05-08T20:24:55Z</time>
      </trkpt>
      <trkpt lat="47.00209" lon="-0.89141">
        <ele>145</ele>
        <time>2023-05-08T20:24:57Z</time>
      </trkpt>
      <trkpt lat="47.00167" lon="-0.89183">
        <ele>146</ele>
        <time>2023-05-08T20:25:06Z</time>
      </trkpt>
      <trkpt lat="47.00168" lon="-0.89191">
        <ele>146</ele>
        <time>2023-05-08T20:25:07Z</time>
      </trkpt>
      <trkpt lat="47.00165" lon="-0.89199">
        <ele>146</ele>
        <time>2023-05-08T20:25:08Z</time>
      </trkpt>
      <trkpt lat="47.00163" lon="-0.89201">
        <ele>146</ele>
        <time>2023-05-08T20:25:09Z</time>
      </trkpt>
      <trkpt lat="47.00169" lon="-0.8922">
        <ele>146</ele>
        <time>2023-05-08T20:25:11Z</time>
      </trkpt>
      <trkpt lat="47.00189" lon="-0.89292">
        <ele>145</ele>
        <time>2023-05-08T20:25:21Z</time>
      </trkpt>
      <trkpt lat="47.00197" lon="-0.89337">
        <ele>145</ele>
        <time>2023-05-08T20:25:26Z</time>
      </trkpt>
      <trkpt lat="47.00208" lon="-0.8942">
        <ele>145</ele>
        <time>2023-05-08T20:25:37Z</time>
      </trkpt>
      <trkpt lat="47.00213" lon="-0.89425">
        <ele>144</ele>
        <time>2023-05-08T20:25:38Z</time>
      </trkpt>
      <trkpt lat="47.00209" lon="-0.89432">
        <ele>144</ele>
        <time>2023-05-08T20:25:39Z</time>
      </trkpt>
      <trkpt lat="47.0021" lon="-0.89443">
        <ele>144</ele>
        <time>2023-05-08T20:25:40Z</time>
      </trkpt>
      <trkpt lat="47.00226" lon="-0.89529">
        <ele>144</ele>
        <time>2023-05-08T20:25:51Z</time>
      </trkpt>
      <trkpt lat="47.0023" lon="-0.89579">
        <ele>144</ele>
        <time>2023-05-08T20:25:57Z</time>
      </trkpt>
      <trkpt lat="47.00234" lon="-0.8961">
        <ele>143</ele>
        <time>2023-05-08T20:26:01Z</time>
      </trkpt>
      <trkpt lat="47.00256" lon="-0.89705">
        <ele>140</ele>
        <time>2023-05-08T20:26:13Z</time>
      </trkpt>
      <trkpt lat="47.00272" lon="-0.89751">
        <ele>138</ele>
        <time>2023-05-08T20:26:19Z</time>
      </trkpt>
      <trkpt lat="47.0029" lon="-0.89794">
        <ele>136</ele>
        <time>2023-05-08T20:26:25Z</time>
      </trkpt>
      <trkpt lat="47.003" lon="-0.89837">
        <ele>135</ele>
        <time>2023-05-08T20:26:31Z</time>
      </trkpt>
      <trkpt lat="47.00314" lon="-0.8988">
        <ele>135</ele>
        <time>2023-05-08T20:26:37Z</time>
      </trkpt>
      <trkpt lat="47.00425" lon="-0.90149">
        <ele>129</ele>
        <time>2023-05-08T20:27:15Z</time>
      </trkpt>
      <trkpt lat="47.00448" lon="-0.9019">
        <ele>130</ele>
        <time>2023-05-08T20:27:21Z</time>
      </trkpt>
      <trkpt lat="47.00544" lon="-0.90338">
        <ele>126</ele>
        <time>2023-05-08T20:27:46Z</time>
      </trkpt>
      <trkpt lat="47.00553" lon="-0.90361">
        <ele>126</ele>
        <time>2023-05-08T20:27:49Z</time>
      </trkpt>
      <trkpt lat="47.00559" lon="-0.9038">
        <ele>126</ele>
        <time>2023-05-08T20:27:52Z</time>
      </trkpt>
      <trkpt lat="47.0059" lon="-0.90365">
        <ele>125</ele>
        <time>2023-05-08T20:27:58Z</time>
      </trkpt>
      <trkpt lat="47.006" lon="-0.90352">
        <ele>125</ele>
        <time>2023-05-08T20:28:00Z</time>
      </trkpt>
      <trkpt lat="47.006" lon="-0.90352">
        <ele>125</ele>
        <time>2023-05-08T20:28:00Z</time>
      </trkpt>
      <trkpt lat="47.0059" lon="-0.90365">
        <ele>125</ele>
        <time>2023-05-08T20:28:02Z</time>
      </trkpt>
      <trkpt lat="47.00559" lon="-0.9038">
        <ele>126</ele>
        <time>2023-05-08T20:28:08Z</time>
      </trkpt>
      <trkpt lat="47.00563" lon="-0.9041">
        <ele>126</ele>
        <time>2023-05-08T20:28:12Z</time>
      </trkpt>
      <trkpt lat="47.00562" lon="-0.90436">
        <ele>126</ele>
        <time>2023-05-08T20:28:15Z</time>
      </trkpt>
      <trkpt lat="47.00554" lon="-0.90501">
        <ele>127</ele>
        <time>2023-05-08T20:28:23Z</time>
      </trkpt>
      <trkpt lat="47.00552" lon="-0.90527">
        <ele>127</ele>
        <time>2023-05-08T20:28:26Z</time>
      </trkpt>
      <trkpt lat="47.00553" lon="-0.90553">
        <ele>127</ele>
        <time>2023-05-08T20:28:29Z</time>
      </trkpt>
      <trkpt lat="47.00562" lon="-0.9059">
        <ele>126</ele>
        <time>2023-05-08T20:28:34Z</time>
      </trkpt>
      <trkpt lat="47.00566" lon="-0.90601">
        <ele>126</ele>
        <time>2023-05-08T20:28:36Z</time>
      </trkpt>
      <trkpt lat="47.00571" lon="-0.90612">
        <ele>126</ele>
        <time>2023-05-08T20:28:37Z</time>
      </trkpt>
      <trkpt lat="47.006" lon="-0.90657">
        <ele>125</ele>
        <time>2023-05-08T20:28:45Z</time>
      </trkpt>
      <trkpt lat="47.00616" lon="-0.90693">
        <ele>124</ele>
        <time>2023-05-08T20:28:50Z</time>
      </trkpt>
      <trkpt lat="47.0063" lon="-0.90737">
        <ele>124</ele>
        <time>2023-05-08T20:28:56Z</time>
      </trkpt>
      <trkpt lat="47.00645" lon="-0.90802">
        <ele>124</ele>
        <time>2023-05-08T20:29:04Z</time>
      </trkpt>
      <trkpt lat="47.00659" lon="-0.90853">
        <ele>124</ele>
        <time>2023-05-08T20:29:11Z</time>
      </trkpt>
      <trkpt lat="47.00687" lon="-0.90944">
        <ele>123</ele>
        <time>2023-05-08T20:29:23Z</time>
      </trkpt>
      <trkpt lat="47.00702" lon="-0.90983">
        <ele>121</ele>
        <time>2023-05-08T20:29:29Z</time>
      </trkpt>
      <trkpt lat="47.00713" lon="-0.91038">
        <ele>120</ele>
        <time>2023-05-08T20:29:35Z</time>
      </trkpt>
      <trkpt lat="47.00727" lon="-0.91089">
        <ele>119</ele>
        <time>2023-05-08T20:29:42Z</time>
      </trkpt>
      <trkpt lat="47.00746" lon="-0.91143">
        <ele>120</ele>
        <time>2023-05-08T20:29:50Z</time>
      </trkpt>
      <trkpt lat="47.00754" lon="-0.91177">
        <ele>120</ele>
        <time>2023-05-08T20:29:54Z</time>
      </trkpt>
      <trkpt lat="47.0078" lon="-0.91374">
        <ele>116</ele>
        <time>2023-05-08T20:30:18Z</time>
      </trkpt>
      <trkpt lat="47.00779" lon="-0.91434">
        <ele>115</ele>
        <time>2023-05-08T20:30:26Z</time>
      </trkpt>
      <trkpt lat="47.00781" lon="-0.91469">
        <ele>115</ele>
        <time>2023-05-08T20:30:30Z</time>
      </trkpt>
      <trkpt lat="47.00788" lon="-0.91504">
        <ele>114</ele>
        <time>2023-05-08T20:30:34Z</time>
      </trkpt>
      <trkpt lat="47.00814" lon="-0.91583">
        <ele>112</ele>
        <time>2023-05-08T20:30:45Z</time>
      </trkpt>
      <trkpt lat="47.00836" lon="-0.91643">
        <ele>111</ele>
        <time>2023-05-08T20:30:53Z</time>
      </trkpt>
      <trkpt lat="47.00871" lon="-0.91712">
        <ele>111</ele>
        <time>2023-05-08T20:31:04Z</time>
      </trkpt>
      <trkpt lat="47.00898" lon="-0.91759">
        <ele>111</ele>
        <time>2023-05-08T20:31:11Z</time>
      </trkpt>
      <trkpt lat="47.00937" lon="-0.91835">
        <ele>111</ele>
        <time>2023-05-08T20:31:23Z</time>
      </trkpt>
      <trkpt lat="47.00956" lon="-0.91888">
        <ele>112</ele>
        <time>2023-05-08T20:31:30Z</time>
      </trkpt>
      <trkpt lat="47.00979" lon="-0.91959">
        <ele>113</ele>
        <time>2023-05-08T20:31:39Z</time>
      </trkpt>
      <trkpt lat="47.00986" lon="-0.9199">
        <ele>113</ele>
        <time>2023-05-08T20:31:43Z</time>
      </trkpt>
      <trkpt lat="47.00991" lon="-0.92036">
        <ele>112</ele>
        <time>2023-05-08T20:31:49Z</time>
      </trkpt>
      <trkpt lat="47.00998" lon="-0.92148">
        <ele>111</ele>
        <time>2023-05-08T20:32:03Z</time>
      </trkpt>
      <trkpt lat="47.01007" lon="-0.92217">
        <ele>111</ele>
        <time>2023-05-08T20:32:11Z</time>
      </trkpt>
      <trkpt lat="47.01019" lon="-0.92261">
        <ele>110</ele>
        <time>2023-05-08T20:32:17Z</time>
      </trkpt>
      <trkpt lat="47.01034" lon="-0.92304">
        <ele>110</ele>
        <time>2023-05-08T20:32:23Z</time>
      </trkpt>
      <trkpt lat="47.01044" lon="-0.92325">
        <ele>110</ele>
        <time>2023-05-08T20:32:26Z</time>
      </trkpt>
      <trkpt lat="47.01078" lon="-0.92357">
        <ele>110</ele>
        <time>2023-05-08T20:32:33Z</time>
      </trkpt>
      <trkpt lat="47.01116" lon="-0.92391">
        <ele>111</ele>
        <time>2023-05-08T20:32:41Z</time>
      </trkpt>
      <trkpt lat="47.01233" lon="-0.92507">
        <ele>108</ele>
        <time>2023-05-08T20:33:06Z</time>
      </trkpt>
      <trkpt lat="47.01265" lon="-0.92525">
        <ele>108</ele>
        <time>2023-05-08T20:33:12Z</time>
      </trkpt>
      <trkpt lat="47.01287" lon="-0.92532">
        <ele>108</ele>
        <time>2023-05-08T20:33:16Z</time>
      </trkpt>
      <trkpt lat="47.01352" lon="-0.92535">
        <ele>109</ele>
        <time>2023-05-08T20:33:28Z</time>
      </trkpt>
      <trkpt lat="47.01367" lon="-0.9254">
        <ele>109</ele>
        <time>2023-05-08T20:33:30Z</time>
      </trkpt>
      <trkpt lat="47.01411" lon="-0.9257">
        <ele>107</ele>
        <time>2023-05-08T20:33:39Z</time>
      </trkpt>
      <trkpt lat="47.01462" lon="-0.92613">
        <ele>106</ele>
        <time>2023-05-08T20:33:50Z</time>
      </trkpt>
      <trkpt lat="47.01485" lon="-0.92624">
        <ele>106</ele>
        <time>2023-05-08T20:33:54Z</time>
      </trkpt>
      <trkpt lat="47.01501" lon="-0.92623">
        <ele>106</ele>
        <time>2023-05-08T20:33:57Z</time>
      </trkpt>
      <trkpt lat="47.01506" lon="-0.92605">
        <ele>106</ele>
        <time>2023-05-08T20:33:59Z</time>
      </trkpt>
      <trkpt lat="47.0151" lon="-0.92601">
        <ele>106</ele>
        <time>2023-05-08T20:34:00Z</time>
      </trkpt>
      <trkpt lat="47.01534" lon="-0.9259">
        <ele>106</ele>
        <time>2023-05-08T20:34:04Z</time>
      </trkpt>
      <trkpt lat="47.01568" lon="-0.9257">
        <ele>105</ele>
        <time>2023-05-08T20:34:11Z</time>
      </trkpt>
      <trkpt lat="47.01617" lon="-0.92561">
        <ele>103</ele>
        <time>2023-05-08T20:34:20Z</time>
      </trkpt>
      <trkpt lat="47.01644" lon="-0.9255">
        <ele>100</ele>
        <time>2023-05-08T20:34:25Z</time>
      </trkpt>
      <trkpt lat="47.01644" lon="-0.9255">
        <ele>100</ele>
        <time>2023-05-08T20:34:25Z</time>
      </trkpt>
      <trkpt lat="47.01668" lon="-0.92541">
        <ele>98</ele>
        <time>2023-05-08T20:34:29Z</time>
      </trkpt>
      <trkpt lat="47.01715" lon="-0.92512">
        <ele>96</ele>
        <time>2023-05-08T20:34:38Z</time>
      </trkpt>
      <trkpt lat="47.01769" lon="-0.92471">
        <ele>94</ele>
        <time>2023-05-08T20:34:49Z</time>
      </trkpt>
      <trkpt lat="47.01807" lon="-0.92428">
        <ele>93</ele>
        <time>2023-05-08T20:34:58Z</time>
      </trkpt>
      <trkpt lat="47.02512" lon="-0.91684">
        <ele>104</ele>
        <time>2023-05-08T20:37:32Z</time>
      </trkpt>
      <trkpt lat="47.02961" lon="-0.91213">
        <ele>106</ele>
        <time>2023-05-08T20:39:10Z</time>
      </trkpt>
      <trkpt lat="47.02994" lon="-0.91169">
        <ele>107</ele>
        <time>2023-05-08T20:39:18Z</time>
      </trkpt>
      <trkpt lat="47.03031" lon="-0.91135">
        <ele>108</ele>
        <time>2023-05-08T20:39:26Z</time>
      </trkpt>
      <trkpt lat="47.0304" lon="-0.91123">
        <ele>108</ele>
        <time>2023-05-08T20:39:28Z</time>
      </trkpt>
      <trkpt lat="47.03045" lon="-0.91114">
        <ele>108</ele>
        <time>2023-05-08T20:39:30Z</time>
      </trkpt>
      <trkpt lat="47.03056" lon="-0.91071">
        <ele>108</ele>
        <time>2023-05-08T20:39:35Z</time>
      </trkpt>
      <trkpt lat="47.03065" lon="-0.91054">
        <ele>108</ele>
        <time>2023-05-08T20:39:38Z</time>
      </trkpt>
      <trkpt lat="47.03071" lon="-0.9105">
        <ele>108</ele>
        <time>2023-05-08T20:39:39Z</time>
      </trkpt>
      <trkpt lat="47.03079" lon="-0.91046">
        <ele>108</ele>
        <time>2023-05-08T20:39:40Z</time>
      </trkpt>
      <trkpt lat="47.03084" lon="-0.91047">
        <ele>108</ele>
        <time>2023-05-08T20:39:41Z</time>
      </trkpt>
      <trkpt lat="47.03089" lon="-0.91052">
        <ele>108</ele>
        <time>2023-05-08T20:39:42Z</time>
      </trkpt>
      <trkpt lat="47.03091" lon="-0.91044">
        <ele>108</ele>
        <time>2023-05-08T20:39:43Z</time>
      </trkpt>
      <trkpt lat="47.03101" lon="-0.91036">
        <ele>108</ele>
        <time>2023-05-08T20:39:45Z</time>
      </trkpt>
      <trkpt lat="47.03123" lon="-0.91026">
        <ele>109</ele>
        <time>2023-05-08T20:39:50Z</time>
      </trkpt>
      <trkpt lat="47.03141" lon="-0.9101">
        <ele>109</ele>
        <time>2023-05-08T20:39:53Z</time>
      </trkpt>
      <trkpt lat="47.03178" lon="-0.90966">
        <ele>110</ele>
        <time>2023-05-08T20:40:02Z</time>
      </trkpt>
      <trkpt lat="47.03179" lon="-0.90957">
        <ele>110</ele>
        <time>2023-05-08T20:40:03Z</time>
      </trkpt>
      <trkpt lat="47.03177" lon="-0.90944">
        <ele>109</ele>
        <time>2023-05-08T20:40:05Z</time>
      </trkpt>
      <trkpt lat="47.03128" lon="-0.90893">
        <ele>109</ele>
        <time>2023-05-08T20:40:15Z</time>
      </trkpt>
      <trkpt lat="47.03126" lon="-0.90903">
        <ele>109</ele>
        <time>2023-05-08T20:40:16Z</time>
      </trkpt>
      <trkpt lat="47.03126" lon="-0.90903">
        <ele>109</ele>
        <time>2023-05-08T20:40:16Z</time>
      </trkpt>
      <trkpt lat="47.03128" lon="-0.90893">
        <ele>109</ele>
        <time>2023-05-08T20:40:18Z</time>
      </trkpt>
      <trkpt lat="47.03068" lon="-0.9083">
        <ele>109</ele>
        <time>2023-05-08T20:40:31Z</time>
      </trkpt>
      <trkpt lat="47.02955" lon="-0.90671">
        <ele>112</ele>
        <time>2023-05-08T20:40:59Z</time>
      </trkpt>
      <trkpt lat="47.02902" lon="-0.90608">
        <ele>111</ele>
        <time>2023-05-08T20:41:11Z</time>
      </trkpt>
      <trkpt lat="47.02845" lon="-0.90531">
        <ele>110</ele>
        <time>2023-05-08T20:41:25Z</time>
      </trkpt>
      <trkpt lat="47.02831" lon="-0.90523">
        <ele>110</ele>
        <time>2023-05-08T20:41:27Z</time>
      </trkpt>
      <trkpt lat="47.02738" lon="-0.90488">
        <ele>109</ele>
        <time>2023-05-08T20:41:44Z</time>
      </trkpt>
      <trkpt lat="47.0271" lon="-0.90475">
        <ele>110</ele>
        <time>2023-05-08T20:41:50Z</time>
      </trkpt>
      <trkpt lat="47.026" lon="-0.90394">
        <ele>110</ele>
        <time>2023-05-08T20:42:12Z</time>
      </trkpt>
      <trkpt lat="47.02537" lon="-0.9037">
        <ele>111</ele>
        <time>2023-05-08T20:42:23Z</time>
      </trkpt>
      <trkpt lat="47.02519" lon="-0.9036">
        <ele>111</ele>
        <time>2023-05-08T20:42:27Z</time>
      </trkpt>
      <trkpt lat="47.02441" lon="-0.90298">
        <ele>112</ele>
        <time>2023-05-08T20:42:42Z</time>
      </trkpt>
      <trkpt lat="47.0234" lon="-0.90231">
        <ele>114</ele>
        <time>2023-05-08T20:43:02Z</time>
      </trkpt>
      <trkpt lat="47.02264" lon="-0.90161">
        <ele>121</ele>
        <time>2023-05-08T20:43:18Z</time>
      </trkpt>
      <trkpt lat="47.0205" lon="-0.90062">
        <ele>122</ele>
        <time>2023-05-08T20:43:58Z</time>
      </trkpt>
      <trkpt lat="47.01955" lon="-0.90045">
        <ele>123</ele>
        <time>2023-05-08T20:44:15Z</time>
      </trkpt>
      <trkpt lat="47.0187" lon="-0.90036">
        <ele>125</ele>
        <time>2023-05-08T20:44:30Z</time>
      </trkpt>
      <trkpt lat="47.0181" lon="-0.90037">
        <ele>125</ele>
        <time>2023-05-08T20:44:41Z</time>
      </trkpt>
      <trkpt lat="47.01812" lon="-0.90012">
        <ele>126</ele>
        <time>2023-05-08T20:44:44Z</time>
      </trkpt>
      <trkpt lat="47.01866" lon="-0.89887">
        <ele>128</ele>
        <time>2023-05-08T20:45:02Z</time>
      </trkpt>
      <trkpt lat="47.01908" lon="-0.89797">
        <ele>131</ele>
        <time>2023-05-08T20:45:15Z</time>
      </trkpt>
      <trkpt lat="47.0192" lon="-0.89784">
        <ele>133</ele>
        <time>2023-05-08T20:45:18Z</time>
      </trkpt>
      <trkpt lat="47.01916" lon="-0.8978">
        <ele>133</ele>
        <time>2023-05-08T20:45:19Z</time>
      </trkpt>
      <trkpt lat="47.01916" lon="-0.8978">
        <ele>133</ele>
        <time>2023-05-08T20:45:19Z</time>
      </trkpt>
      <trkpt lat="47.0192" lon="-0.89784">
        <ele>133</ele>
        <time>2023-05-08T20:45:19Z</time>
      </trkpt>
      <trkpt lat="47.01952" lon="-0.89749">
        <ele>135</ele>
        <time>2023-05-08T20:45:26Z</time>
      </trkpt>
      <trkpt lat="47.02114" lon="-0.89604">
        <ele>136</ele>
        <time>2023-05-08T20:46:00Z</time>
      </trkpt>
      <trkpt lat="47.02309" lon="-0.89436">
        <ele>128</ele>
        <time>2023-05-08T20:46:41Z</time>
      </trkpt>
      <trkpt lat="47.02434" lon="-0.89323">
        <ele>123</ele>
        <time>2023-05-08T20:47:07Z</time>
      </trkpt>
      <trkpt lat="47.02502" lon="-0.89267">
        <ele>123</ele>
        <time>2023-05-08T20:47:21Z</time>
      </trkpt>
      <trkpt lat="47.02533" lon="-0.89253">
        <ele>123</ele>
        <time>2023-05-08T20:47:26Z</time>
      </trkpt>
      <trkpt lat="47.02578" lon="-0.89238">
        <ele>124</ele>
        <time>2023-05-08T20:47:34Z</time>
      </trkpt>
      <trkpt lat="47.02841" lon="-0.89157">
        <ele>124</ele>
        <time>2023-05-08T20:48:22Z</time>
      </trkpt>
      <trkpt lat="47.0295" lon="-0.8912">
        <ele>124</ele>
        <time>2023-05-08T20:48:42Z</time>
      </trkpt>
      <trkpt lat="47.02981" lon="-0.89113">
        <ele>124</ele>
        <time>2023-05-08T20:48:48Z</time>
      </trkpt>
      <trkpt lat="47.03142" lon="-0.89047">
        <ele>118</ele>
        <time>2023-05-08T20:49:18Z</time>
      </trkpt>
      <trkpt lat="47.03294" lon="-0.8899">
        <ele>111</ele>
        <time>2023-05-08T20:49:45Z</time>
      </trkpt>
      <trkpt lat="47.03364" lon="-0.88973">
        <ele>109</ele>
        <time>2023-05-08T20:49:58Z</time>
      </trkpt>
      <trkpt lat="47.03381" lon="-0.88965">
        <ele>109</ele>
        <time>2023-05-08T20:50:01Z</time>
      </trkpt>
      <trkpt lat="47.03448" lon="-0.88917">
        <ele>110</ele>
        <time>2023-05-08T20:50:15Z</time>
      </trkpt>
      <trkpt lat="47.03477" lon="-0.88904">
        <ele>110</ele>
        <time>2023-05-08T20:50:20Z</time>
      </trkpt>
      <trkpt lat="47.03534" lon="-0.88874">
        <ele>111</ele>
        <time>2023-05-08T20:50:31Z</time>
      </trkpt>
      <trkpt lat="47.03771" lon="-0.88685">
        <ele>114</ele>
        <time>2023-05-08T20:51:19Z</time>
      </trkpt>
      <trkpt lat="47.03903" lon="-0.88587">
        <ele>113</ele>
        <time>2023-05-08T20:51:45Z</time>
      </trkpt>
      <trkpt lat="47.03914" lon="-0.88577">
        <ele>113</ele>
        <time>2023-05-08T20:51:47Z</time>
      </trkpt>
      <trkpt lat="47.03921" lon="-0.88558">
        <ele>113</ele>
        <time>2023-05-08T20:51:50Z</time>
      </trkpt>
      <trkpt lat="47.03925" lon="-0.88551">
        <ele>113</ele>
        <time>2023-05-08T20:51:51Z</time>
      </trkpt>
      <trkpt lat="47.03917" lon="-0.88545">
        <ele>113</ele>
        <time>2023-05-08T20:51:53Z</time>
      </trkpt>
      <trkpt lat="47.03911" lon="-0.88534">
        <ele>113</ele>
        <time>2023-05-08T20:51:54Z</time>
      </trkpt>
      <trkpt lat="47.03909" lon="-0.88521">
        <ele>113</ele>
        <time>2023-05-08T20:51:56Z</time>
      </trkpt>
      <trkpt lat="47.03911" lon="-0.88508">
        <ele>113</ele>
        <time>2023-05-08T20:51:58Z</time>
      </trkpt>
      <trkpt lat="47.03916" lon="-0.88498">
        <ele>113</ele>
        <time>2023-05-08T20:51:59Z</time>
      </trkpt>
      <trkpt lat="47.03923" lon="-0.88492">
        <ele>113</ele>
        <time>2023-05-08T20:52:01Z</time>
      </trkpt>
      <trkpt lat="47.03936" lon="-0.88492">
        <ele>113</ele>
        <time>2023-05-08T20:52:03Z</time>
      </trkpt>
      <trkpt lat="47.03947" lon="-0.88503">
        <ele>113</ele>
        <time>2023-05-08T20:52:05Z</time>
      </trkpt>
      <trkpt lat="47.03951" lon="-0.88521">
        <ele>113</ele>
        <time>2023-05-08T20:52:07Z</time>
      </trkpt>
      <trkpt lat="47.03992" lon="-0.88511">
        <ele>112</ele>
        <time>2023-05-08T20:52:15Z</time>
      </trkpt>
      <trkpt lat="47.04054" lon="-0.88502">
        <ele>111</ele>
        <time>2023-05-08T20:52:26Z</time>
      </trkpt>
      <trkpt lat="47.04095" lon="-0.88502">
        <ele>110</ele>
        <time>2023-05-08T20:52:33Z</time>
      </trkpt>
      <trkpt lat="47.04084" lon="-0.88586">
        <ele>111</ele>
        <time>2023-05-08T20:52:44Z</time>
      </trkpt>
    </trkseg>
  </trk>
</gpx>